Date String (YYYY-MM-DD hh:mm:ss) UTC,Instrument flags,Ambient pressure (hPa),Sample flow (lpm),Bypass flow (lpm),Sample temperature (°C),Ambient temperature (°C),ASC tube jacket temperature (°C),LED temperature (°C),Box temperature (°C),Sample RH (%),Span deviation,Mass concentration (μg/m³),Mass concentration (μg/m³),Mass concentration (μg/m³)
DateTimeUTC,F1_M11,P_M11,Q1_M11,Q2_M11,T1_M11,T2_M11,T3_M11,T4_M11,T5_M11,U1_M11,ZSPAN_M11,X2_M11,X0_M11,X1_M11
2022-07-23 23:00:00,,0828.4,4.99,0.00,30.9,27.9,00.0,39.5,31.9,31.5,0000.0,0004.64,0009.31,0003.78
2022-07-23 23:01:00,,0828.3,5.01,0.00,30.9,28.1,00.0,39.5,31.9,30.3,0000.0,0004.60,0009.30,0003.73
2022-07-23 23:02:00,,0828.3,5.00,0.00,30.9,28.3,00.0,39.4,32.0,32.0,0000.0,0004.58,0009.31,0003.71
2022-07-23 23:03:00,,0828.3,4.99,0.00,30.8,28.4,00.0,39.4,32.0,31.1,0000.0,0004.53,0009.22,0003.68
2022-07-23 23:04:00,,0828.3,5.01,0.00,30.8,28.1,00.0,39.3,32.0,32.7,0000.0,0004.49,0009.05,0003.66
2022-07-23 23:05:00,,0828.3,5.01,0.00,30.8,27.4,00.0,39.3,31.9,32.7,0000.0,0004.41,0008.75,0003.64
2022-07-23 23:06:00,,0828.3,4.99,0.00,30.7,27.2,00.0,39.2,31.8,30.8,0000.0,0004.37,0008.73,0003.63
2022-07-23 23:07:00,,0828.3,5.01,0.00,30.6,27.2,00.0,39.2,31.7,29.9,0000.0,0004.34,0008.70,0003.61
2022-07-23 23:08:00,,0828.3,5.01,0.00,30.5,27.3,00.0,39.2,31.6,30.2,0000.0,0004.38,0008.80,0003.60
2022-07-23 23:09:00,,0828.2,4.99,0.00,30.5,27.5,00.0,39.1,31.6,30.1,0000.0,0004.36,0008.67,0003.59
2022-07-23 23:10:00,,0828.2,4.99,0.00,30.4,27.7,00.0,39.1,31.7,30.5,0000.0,0004.34,0008.54,0003.58
2022-07-23 23:11:00,,0828.2,5.00,0.00,30.4,27.9,00.0,39.1,31.7,30.0,0000.0,0004.31,0007.90,0003.57
2022-07-23 23:12:00,,0828.3,5.00,0.00,30.4,28.0,00.0,39.1,31.8,29.0,0000.0,0004.26,0007.74,0003.57
2022-07-23 23:13:00,,0828.2,5.00,0.00,30.4,28.2,00.0,39.1,31.8,29.4,0000.0,0004.23,0007.71,0003.57
2022-07-23 23:14:00,,0828.2,4.99,0.00,30.4,28.3,00.0,39.0,31.9,28.8,0000.0,0004.20,0007.64,0003.56
2022-07-23 23:15:00,,0828.2,5.01,0.00,30.4,27.8,00.0,39.0,31.8,29.3,0000.0,0004.17,0007.74,0003.55
2022-07-23 23:16:00,,0828.2,4.99,0.00,30.3,27.2,00.0,38.9,31.7,30.5,0000.0,0004.16,0008.21,0003.54
2022-07-23 23:17:00,,0828.2,4.99,0.00,30.3,27.1,00.0,38.9,31.6,31.9,0000.0,0004.17,0008.87,0003.55
2022-07-23 23:18:00,,0828.2,5.00,0.00,30.2,27.2,00.0,38.9,31.5,31.8,0000.0,0004.17,0008.89,0003.55
2022-07-23 23:19:00,,0828.2,5.01,0.00,30.1,27.3,00.0,38.8,31.5,30.8,0000.0,0004.14,0008.87,0003.56
2022-07-23 23:20:00,,0828.1,4.99,0.00,30.1,27.5,00.0,38.8,31.5,30.9,0000.0,0004.12,0009.15,0003.56
2022-07-23 23:21:00,,0828.2,5.00,0.00,30.1,27.7,00.0,38.8,31.5,31.5,0000.0,0004.12,0009.17,0003.56
2022-07-23 23:22:00,,0828.2,4.99,0.00,30.1,27.9,00.0,38.8,31.6,33.2,0000.0,0004.11,0009.22,0003.57
2022-07-23 23:23:00,,0828.2,5.00,0.00,30.1,28.1,00.0,38.8,31.7,31.9,0000.0,0004.11,0009.21,0003.57
2022-07-23 23:24:00,,0828.1,5.00,0.00,30.1,28.2,00.0,38.8,31.7,30.8,0000.0,0004.09,0009.11,0003.56
2022-07-23 23:25:00,,0828.2,5.00,0.00,30.1,28.1,00.0,38.7,31.7,31.3,0000.0,0004.09,0009.11,0003.56
2022-07-23 23:26:00,,0828.1,5.00,0.00,30.1,27.5,00.0,38.7,31.6,31.9,0000.0,0004.08,0009.17,0003.56
2022-07-23 23:27:00,,0828.1,5.00,0.00,30.0,27.2,00.0,38.6,31.5,33.1,0000.0,0004.10,0008.65,0003.57
2022-07-23 23:28:00,,0828.1,4.99,0.00,29.9,27.1,00.0,38.6,31.4,33.7,0000.0,0004.12,0008.06,0003.59
2022-07-23 23:29:00,,0828.1,5.01,0.00,29.9,27.2,00.0,38.6,31.3,37.3,0000.0,0004.20,0008.18,0003.62
2022-07-23 23:30:00,,0828.1,5.01,0.00,30.0,27.3,00.0,38.6,31.5,40.7,0000.0,0004.34,0008.57,0003.73
2022-07-23 23:31:00,,0828.0,5.00,0.00,30.3,27.5,00.0,38.6,31.7,40.0,0000.0,0004.51,0009.15,0003.84
2022-07-23 23:32:00,,0828.1,5.00,0.00,30.7,27.7,00.0,38.6,31.9,38.3,0000.0,0004.66,0009.44,0003.94
2022-07-23 23:33:00,,0828.1,5.00,0.00,31.1,27.9,00.0,38.6,32.1,37.8,0000.0,0004.80,0009.63,0004.04
2022-07-23 23:34:00,,0828.0,5.01,0.00,31.6,28.1,00.0,38.7,32.2,37.4,0000.0,0004.95,0009.87,0004.14
2022-07-23 23:35:00,,0828.0,5.01,0.00,32.0,28.3,00.0,38.8,32.4,37.5,0000.0,0005.14,0010.37,0004.24
2022-07-23 23:36:00,,0828.0,5.00,0.00,32.5,28.3,00.0,38.9,32.6,37.3,0000.0,0005.38,0010.87,0004.35
2022-07-23 23:37:00,,0828.0,5.00,0.00,33.0,27.8,00.0,39.0,32.6,36.3,0000.0,0005.56,0011.13,0004.44
2022-07-23 23:38:00,,0828.1,5.00,0.00,33.4,27.3,00.0,39.1,32.7,34.5,0000.0,0005.70,0011.36,0004.52
2022-07-23 23:39:00,,0828.1,5.00,0.00,33.6,27.2,00.0,39.3,32.5,33.8,0000.0,0005.89,0011.87,0004.59
2022-07-23 23:40:00,,0828.1,4.99,0.00,33.6,27.3,00.0,39.5,32.3,33.9,0000.0,0006.02,0012.03,0004.65
2022-07-23 23:41:00,,0828.0,4.99,0.00,33.5,27.4,00.0,39.7,32.3,33.4,0000.0,0006.06,0011.96,0004.65
2022-07-23 23:42:00,,0828.1,5.01,0.00,33.4,27.6,00.0,39.9,32.3,33.8,0000.0,0006.07,0011.48,0004.63
2022-07-23 23:43:00,,0828.1,5.00,0.00,33.4,27.8,00.0,40.0,32.3,33.8,0000.0,0006.08,0011.32,0004.63
2022-07-23 23:44:00,,0828.1,5.00,0.00,33.3,28.0,00.0,40.1,32.4,34.1,0000.0,0006.10,0011.60,0004.63
2022-07-23 23:45:00,,0828.1,5.01,0.00,33.2,28.2,00.0,40.3,32.4,34.4,0000.0,0006.15,0012.20,0004.64
2022-07-23 23:46:00,,0828.1,4.99,0.00,33.1,28.4,00.0,40.4,32.5,34.4,0000.0,0006.14,0012.03,0004.66
2022-07-23 23:47:00,,0828.0,5.00,0.00,33.1,28.5,00.0,40.4,32.5,34.0,0000.0,0006.08,0011.90,0004.66
2022-07-23 23:48:00,,0828.0,5.00,0.00,33.0,28.4,00.0,40.4,32.6,34.1,0000.0,0006.10,0011.91,0004.69
2022-07-23 23:49:00,,0828.0,4.99,0.00,33.0,27.8,00.0,40.4,32.5,33.5,0000.0,0006.14,0012.02,0004.71
2022-07-23 23:50:00,,0828.0,5.00,0.00,32.9,27.4,00.0,40.3,32.4,32.9,0000.0,0006.12,0012.62,0004.73
2022-07-23 23:51:00,,0828.0,5.00,0.00,32.7,27.3,00.0,40.4,32.3,33.4,0000.0,0006.13,0013.34,0004.75
2022-07-23 23:52:00,,0828.0,4.99,0.00,32.5,27.4,00.0,40.4,32.2,33.0,0000.0,0006.19,0013.58,0004.75
2022-07-23 23:53:00,,0828.0,4.99,0.00,32.4,27.6,00.0,40.4,32.2,33.2,0000.0,0006.21,0013.65,0004.75
2022-07-23 23:54:00,,0828.0,5.01,0.00,32.3,27.8,00.0,40.3,32.2,32.3,0000.0,0006.20,0013.68,0004.73
2022-07-23 23:55:00,,0828.0,4.99,0.00,32.2,28.0,00.0,40.3,32.3,32.4,0000.0,0006.16,0013.35,0004.73
2022-07-23 23:56:00,,0828.1,5.01,0.00,32.1,28.1,00.0,40.3,32.3,32.3,0000.0,0006.09,0012.67,0004.71
2022-07-23 23:57:00,,0828.0,5.00,0.00,32.0,28.3,00.0,40.3,32.3,31.5,0000.0,0006.05,0012.85,0004.68
2022-07-23 23:58:00,,0828.0,4.99,0.00,32.0,28.5,00.0,40.2,32.4,32.3,0000.0,0006.03,0013.13,0004.66
2022-07-23 23:59:00,,0828.1,4.99,0.00,31.9,28.6,00.0,40.2,32.4,32.7,0000.0,0005.96,0013.88,0004.63
